Location: Atherton
(17.2661°S, 145.4859°E)
Time: 17:21:13
(UTC+10:00)

ACS3 Solar Sail - Pass Details

Date: 26 May 2025
Orbit: 920 x 1019 km, 97.5° (Epoch: 20 June)

Event Time Altitude Azimuth Distance (km) Brightness Sun altitude
Rises 04:48:51 0° 31° (NNE) 3,551 5.4 -25.7°
Reaches altitude 10° 04:51:25 10° 39° (NE) 2,621 4.7 -25.1°
Maximum altitude 04:56:46 38° 105° (ESE) 1,407 3.0 -23.9°
Drops below altitude 10° 05:02:14 10° 171° (S) 2,690 4.0 -22.7°
Sets 05:04:53 0° 178° (S) 3,657 4.7 -22.1°
